Location: Degerfors
(59.2294°N, 14.4406°E)
Time: 21:52:51
(UTC+01:00)

ISS - Pass Details

Date: 05 December 2021
Orbit: 413 x 422 km, 51.6° (Epoch: 23 January)

Event Time Altitude Azimuth Distance (km) Brightness Sun altitude
Rises 17:03:57 0° 263° (W) 2,387 1.7 -13.2°
Reaches altitude 10° 17:06:39 10° 240° (WSW) 1,517 0.5 -13.5°
Maximum altitude 17:08:46 16° 202° (SSW) 1,213 -0.9 -13.7°
Drops below altitude 10° 17:10:53 10° 163° (SSE) 1,510 -0.9 -14.0°
Enters shadow 17:13:34 - 140° (SE) 2,375 -0.1 -14.3°
